Flag for Argentina Weather past 2 weeks in Buenos Aires, Argentina

Now
61 °F

Clear.


Feels Like: 61 °F
Forecast: 54 / 61 °F
Wind: 8 mph from East

Location: Buenos Aires Airport

Current Time: May 28, 2015 at 10:10:47 PM

Latest Report: May 28, 2015 at 10:00 PM


Visibility: 10 mi

Pressure: 30.09 "Hg

Humidity: 77%

Dew point: 54 °F

Location of Buenos AiresLocation

Historic Weather in Buenos Aires — Graph

°F

Buenos Aires temperature yesterday

Maximum temperature yesterday: 64 °F (at 1:00 PM)
Minimum temperature yesterday: 54 °F (at 1:00 AM)
Average temperature yesterday: 59 °F

Past Weeks' High & Low Weather Summary

 TemperatureHumidityPressure
High77 °F (May 21, 2:00 PM)100% (May 16, 2:00 AM)30.24 "Hg (May 16, 2:00 AM)
Low52 °F (May 25, 4:00 AM)40% (May 25, 1:00 PM)29.71 "Hg (May 23, 5:00 AM)
Average65 °F81%30.06 "Hg
* Reported May 13 9:00 PM — May 28 9:00 PM, Buenos Aires, Weather by CustomWeather, © 2015

Note: Actual official high and low records may vary slightly from our data, if they occured in-between our weather recording intervals... More about our weather records

Advertising

Buenos Aires weather history for previous 24 hours

 ConditionsComfort  
Time TempWeatherWind HumidityBarometerVisibility
9:00 PM
Thu, May 28
61 °FClear.8 mph72%30.09 "Hg10 mi
8:00 PM59 °FClear.9 mph72%30.09 "Hg10 mi
7:00 PM59 °FClear.9 mph77%30.09 "Hg10 mi
6:00 PM59 °FClear.8 mph77%30.09 "Hg10 mi
5:00 PM61 °FPassing clouds.6 mph68%30.09 "HgN/A
4:00 PM63 °FPassing clouds.6 mph59%30.12 "HgN/A
3:00 PM63 °FPassing clouds.6 mph64%30.12 "HgN/A
2:00 PM63 °FPassing clouds.6 mph68%30.15 "HgN/A
1:00 PM63 °FPassing clouds.6 mph73%30.18 "HgN/A
12:00 PM63 °FScattered clouds.7 mph73%30.21 "HgN/A
11:00 AM61 °FScattered clouds.7 mph77%30.21 "HgN/A
10:00 AM61 °FScattered clouds.6 mph77%30.21 "HgN/A
9:00 AM59 °FScattered clouds.5 mph82%30.21 "HgN/A
8:00 AM59 °FPassing clouds.5 mph82%30.21 "HgN/A
7:00 AM59 °FPassing clouds.5 mph77%30.21 "HgN/A
6:00 AM59 °FClear.6 mph77%30.21 "Hg10 mi
5:00 AM59 °FPassing clouds.6 mph77%30.18 "HgN/A
4:00 AM59 °FPassing clouds.5 mph82%30.18 "HgN/A
3:00 AM59 °FPassing clouds.5 mph82%30.21 "HgN/A
2:00 AM61 °FPassing clouds.6 mph83%30.21 "HgN/A
1:00 AM61 °FPassing clouds.8 mph83%30.21 "HgN/A
12:00 AM61 °FPassing clouds.9 mph77%30.21 "HgN/A
11:00 PM
Wed, May 27
61 °FPassing clouds.12 mph83%30.21 "HgN/A
Weather by CustomWeather, © 2015

See weather overviewHow to use our weather pages